Location: Dal�� Lhota
(48.7500°N, 14.0167°E)
Time: 22:41:04
(UTC+00:00)

Meteor 2-5 Rocket - Pass Details

Date: 24 September 2020
Orbit: 833 x 912 km, 81.2° (Epoch: 25 October)

Event Time Altitude Azimuth Distance (km) Brightness Sun altitude
Rises 18:04:44 0° 351° (N) 3,430 7.2 -11.9°
Reaches altitude 10° 18:07:14 10° 358° (N) 2,501 6.4 -12.3°
Maximum altitude 18:12:43 48° 72° (ENE) 1,127 4.0 -13.2°
Enters shadow 18:18:09 11° 146° (SE) 2,489 5.7 -14.1°
